Location: Unspecified
(0.0000°N, 0.0000°E)
Time: 06:41:15
(UTC+00:00)

Transit 2A - Pass Details

Date: 19 November 2019
Orbit: 592 x 967 km, 66.7° (Epoch: 09 July)

Event Time Altitude Azimuth Distance (km) Brightness Sun altitude
Rises 11:38:54 0° 233° (SW) 3,490 9.5 70.5°
Reaches altitude 10° 11:42:44 10° 257° (WSW) 2,470 8.8 70.5°
Maximum altitude 11:45:37 14° 288° (WNW) 2,120 8.4 70.5°
Drops below altitude 10° 11:48:23 10° 319° (NW) 2,333 8.5 70.5°
Sets 11:51:51 0° 344° (NNW) 3,167 9.0 70.5°
